Time,TemperatureF,DewpointF,PressureIn,WindDirection,WindDirectionDegrees,WindSpeedMPH,WindSpeedGustMPH,Humidity,HourlyPrecipIn,Conditions,Clouds,dailyrainin,SolarRadiationWatts/m^2,SoftwareType,DateUTC
2013-02-15 00:01:00,54.0,49.0,-100.00,SSE,148,3.0,7.0,84,0.00,,,0.00,0.000000,,2013-02-15 10:01:00,
2013-02-15 00:11:00,54.0,49.0,-100.00,SSE,148,3.0,7.0,84,0.00,,,0.00,0.000000,,2013-02-15 10:11:00,
2013-02-15 00:21:00,54.0,49.0,-100.00,SSE,148,3.0,7.0,84,0.00,,,0.00,0.000000,,2013-02-15 10:21:00,
2013-02-15 00:31:00,54.0,49.0,-100.00,SSE,148,3.0,7.0,84,0.00,,,0.00,0.000000,,2013-02-15 10:31:00,
2013-02-15 01:01:00,54.0,52.0,-100.00,South,176,3.0,6.0,92,0.00,,,0.00,0.000000,,2013-02-15 11:01:00,
2013-02-15 01:11:00,54.0,52.0,-100.00,South,176,3.0,6.0,92,0.00,,,0.00,0.000000,,2013-02-15 11:11:00,
2013-02-15 01:22:00,54.0,52.0,-100.00,South,176,3.0,6.0,92,0.00,,,0.00,0.000000,,2013-02-15 11:22:00,
2013-02-15 01:31:00,54.0,52.0,-100.00,South,176,3.0,6.0,92,0.00,,,0.00,0.000000,,2013-02-15 11:31:00,
2013-02-15 01:52:00,52.0,49.0,-100.00,SSE,152,6.0,8.0,91,0.00,,,0.00,0.000000,,2013-02-15 11:52:00,
2013-02-15 02:01:00,52.0,49.0,-100.00,SSE,152,6.0,8.0,91,0.00,,,0.00,0.000000,,2013-02-15 12:01:00,
2013-02-15 02:11:00,52.0,49.0,-100.00,SSE,152,6.0,8.0,91,0.00,,,0.00,0.000000,,2013-02-15 12:11:00,
2013-02-15 02:21:00,52.0,49.0,-100.00,SSE,152,6.0,8.0,91,0.00,,,0.00,0.000000,,2013-02-15 12:21:00,
2013-02-15 02:31:00,52.0,49.0,-100.00,SSE,152,6.0,8.0,91,0.00,,,0.00,0.000000,,2013-02-15 12:31:00,
2013-02-15 03:02:00,53.0,51.0,-100.00,SSE,150,6.0,8.0,92,0.00,,,0.00,0.000000,,2013-02-15 13:02:00,
2013-02-15 03:11:00,53.0,51.0,-100.00,SSE,150,6.0,8.0,92,0.00,,,0.00,0.000000,,2013-02-15 13:11:00,
2013-02-15 03:21:00,53.0,51.0,-100.00,SSE,150,6.0,8.0,92,0.00,,,0.00,0.000000,,2013-02-15 13:21:00,
2013-02-15 03:31:00,53.0,51.0,-100.00,SSE,150,6.0,8.0,92,0.00,,,0.00,0.000000,,2013-02-15 13:31:00,
2013-02-15 04:01:00,52.0,49.0,-100.00,SE,144,7.0,9.0,91,0.00,,,0.00,0.000000,,2013-02-15 14:01:00,
2013-02-15 04:11:00,52.0,49.0,-100.00,SE,144,7.0,9.0,91,0.00,,,0.00,0.000000,,2013-02-15 14:11:00,
2013-02-15 04:21:00,52.0,49.0,-100.00,SE,144,7.0,9.0,91,0.00,,,0.00,0.000000,,2013-02-15 14:21:00,
2013-02-15 04:32:00,52.0,49.0,-100.00,SE,144,7.0,9.0,91,0.00,,,0.00,0.000000,,2013-02-15 14:32:00,
2013-02-15 05:01:00,52.0,49.0,-100.00,SSE,149,6.0,9.0,89,0.00,,,0.00,0.000000,,2013-02-15 15:01:00,
2013-02-15 05:11:00,52.0,49.0,-100.00,SSE,149,6.0,9.0,89,0.00,,,0.00,0.000000,,2013-02-15 15:11:00,
2013-02-15 05:21:00,52.0,49.0,-100.00,SSE,149,6.0,9.0,89,0.00,,,0.00,0.000000,,2013-02-15 15:21:00,
2013-02-15 05:32:00,52.0,49.0,-100.00,SSE,149,6.0,9.0,89,0.00,,,0.00,0.000000,,2013-02-15 15:32:00,
2013-02-15 06:01:00,51.0,49.0,-100.00,SE,138,6.0,8.0,92,0.00,,,0.00,0.000000,,2013-02-15 16:01:00,
2013-02-15 06:11:00,51.0,49.0,-100.00,SE,138,6.0,8.0,92,0.00,,,0.00,0.000000,,2013-02-15 16:11:00,
2013-02-15 06:22:00,51.0,49.0,-100.00,SE,138,6.0,8.0,92,0.00,,,0.00,0.000000,,2013-02-15 16:22:00,
2013-02-15 06:31:00,51.0,49.0,-100.00,SE,138,6.0,8.0,92,0.00,,,0.00,0.000000,,2013-02-15 16:31:00,
2013-02-15 07:01:00,52.0,41.0,-100.00,SE,131,8.0,13.0,66,0.00,,,0.00,0.000000,,2013-02-15 17:01:00,
2013-02-15 07:11:00,52.0,41.0,-100.00,SE,131,8.0,13.0,66,0.00,,,0.00,0.000000,,2013-02-15 17:11:00,
2013-02-15 07:21:00,52.0,41.0,-100.00,SE,131,8.0,13.0,66,0.00,,,0.00,0.000000,,2013-02-15 17:21:00,
2013-02-15 07:31:00,52.0,41.0,-100.00,SE,131,8.0,13.0,66,0.00,,,0.00,0.000000,,2013-02-15 17:31:00,
2013-02-15 08:01:00,53.0,42.0,-100.00,SE,141,5.0,10.0,65,0.00,,,0.00,42.000000,,2013-02-15 18:01:00,
2013-02-15 08:11:00,53.0,42.0,-100.00,SE,141,5.0,10.0,65,0.00,,,0.00,42.000000,,2013-02-15 18:11:00,
2013-02-15 08:21:00,53.0,42.0,-100.00,SE,141,5.0,10.0,65,0.00,,,0.00,42.000000,,2013-02-15 18:21:00,
2013-02-15 08:31:00,53.0,42.0,-100.00,SE,141,5.0,10.0,65,0.00,,,0.00,42.000000,,2013-02-15 18:31:00,
2013-02-15 09:01:00,66.0,45.0,-100.00,South,175,2.0,8.0,46,0.00,,,-99.99,307.000000,,2013-02-15 19:01:00,
2013-02-15 09:11:00,66.0,45.0,-100.00,South,175,2.0,8.0,46,0.00,,,-99.99,307.000000,,2013-02-15 19:11:00,
2013-02-15 09:21:00,66.0,45.0,-100.00,South,175,2.0,8.0,46,0.00,,,-99.99,307.000000,,2013-02-15 19:21:00,
2013-02-15 09:31:00,66.0,45.0,-100.00,South,175,2.0,8.0,46,0.00,,,-99.99,307.000000,,2013-02-15 19:31:00,
2013-02-15 10:01:00,70.0,43.0,-100.00,SW,228,2.0,9.0,38,0.00,,,0.00,606.000000,,2013-02-15 20:01:00,
2013-02-15 10:11:00,70.0,43.0,-100.00,SW,228,2.0,9.0,38,0.00,,,0.00,606.000000,,2013-02-15 20:11:00,
2013-02-15 10:21:00,70.0,43.0,-100.00,SW,228,2.0,9.0,38,0.00,,,0.00,606.000000,,2013-02-15 20:21:00,
2013-02-15 10:32:00,70.0,43.0,-100.00,SW,228,2.0,9.0,38,0.00,,,0.00,606.000000,,2013-02-15 20:32:00,
2013-02-15 11:01:00,73.0,44.0,-100.00,NW,308,7.0,12.0,36,0.00,,,0.00,854.000000,,2013-02-15 21:01:00,
2013-02-15 11:11:00,73.0,44.0,-100.00,NW,308,7.0,12.0,36,0.00,,,0.00,854.000000,,2013-02-15 21:11:00,
2013-02-15 11:21:00,73.0,44.0,-100.00,NW,308,7.0,12.0,36,0.00,,,0.00,854.000000,,2013-02-15 21:21:00,
2013-02-15 11:31:00,73.0,44.0,-100.00,NW,308,7.0,12.0,36,0.00,,,0.00,854.000000,,2013-02-15 21:31:00,
2013-02-15 12:02:00,75.0,50.0,-100.00,West,269,9.0,18.0,42,0.00,,,0.00,1029.000000,,2013-02-15 22:02:00,
2013-02-15 12:11:00,75.0,50.0,-100.00,West,269,9.0,18.0,42,0.00,,,0.00,1029.000000,,2013-02-15 22:11:00,
2013-02-15 12:21:00,75.0,50.0,-100.00,West,269,9.0,18.0,42,0.00,,,0.00,1029.000000,,2013-02-15 22:21:00,
2013-02-15 12:31:00,75.0,50.0,-100.00,West,269,9.0,18.0,42,0.00,,,0.00,1029.000000,,2013-02-15 22:31:00,
2013-02-15 13:02:00,75.0,53.0,-100.00,North,355,12.0,25.0,47,0.00,,,0.00,1121.000000,,2013-02-15 23:02:00,
2013-02-15 13:11:00,75.0,53.0,-100.00,North,355,12.0,25.0,47,0.00,,,0.00,1121.000000,,2013-02-15 23:11:00,
2013-02-15 13:21:00,75.0,53.0,-100.00,North,355,12.0,25.0,47,0.00,,,0.00,1121.000000,,2013-02-15 23:21:00,
2013-02-15 13:31:00,75.0,53.0,-100.00,North,355,12.0,25.0,47,0.00,,,0.00,1121.000000,,2013-02-15 23:31:00,
2013-02-15 14:02:00,75.0,54.0,-100.00,NNW,329,9.0,23.0,48,0.00,,,-99.99,903.000000,,2013-02-16 00:02:00,
2013-02-15 14:11:00,75.0,54.0,-100.00,NNW,329,9.0,23.0,48,0.00,,,-99.99,903.000000,,2013-02-16 00:11:00,
2013-02-15 14:21:00,75.0,54.0,-100.00,NNW,329,9.0,23.0,48,0.00,,,-99.99,903.000000,,2013-02-16 00:21:00,
2013-02-15 14:31:00,75.0,54.0,-100.00,NNW,329,9.0,23.0,48,0.00,,,-99.99,903.000000,,2013-02-16 00:31:00,
2013-02-15 15:02:00,75.0,57.0,-100.00,North,11,7.0,28.0,53,0.00,,,0.00,534.000000,,2013-02-16 01:02:00,
2013-02-15 15:11:00,75.0,57.0,-100.00,North,11,7.0,28.0,53,0.00,,,0.00,534.000000,,2013-02-16 01:11:00,
2013-02-15 15:21:00,75.0,57.0,-100.00,North,11,7.0,28.0,53,0.00,,,0.00,534.000000,,2013-02-16 01:21:00,
2013-02-15 15:31:00,75.0,57.0,-100.00,North,11,7.0,28.0,53,0.00,,,0.00,534.000000,,2013-02-16 01:31:00,
2013-02-15 16:01:00,73.0,54.0,-100.00,North,1,14.0,23.0,52,0.00,,,0.00,647.000000,,2013-02-16 02:01:00,
2013-02-15 16:11:00,73.0,54.0,-100.00,North,1,14.0,23.0,52,0.00,,,0.00,647.000000,,2013-02-16 02:11:00,
2013-02-15 16:21:00,73.0,54.0,-100.00,North,1,14.0,23.0,52,0.00,,,0.00,647.000000,,2013-02-16 02:21:00,
2013-02-15 16:31:00,73.0,54.0,-100.00,North,1,14.0,23.0,52,0.00,,,0.00,647.000000,,2013-02-16 02:31:00,
2013-02-15 17:01:00,71.0,54.0,-100.00,West,277,15.0,27.0,55,0.00,,,0.00,556.000000,,2013-02-16 03:01:00,
2013-02-15 17:11:00,71.0,54.0,-100.00,West,277,15.0,27.0,55,0.00,,,0.00,556.000000,,2013-02-16 03:11:00,
2013-02-15 17:21:00,71.0,54.0,-100.00,West,277,15.0,27.0,55,0.00,,,0.00,556.000000,,2013-02-16 03:21:00,
2013-02-15 17:31:00,71.0,54.0,-100.00,West,277,15.0,27.0,55,0.00,,,0.00,556.000000,,2013-02-16 03:31:00,
2013-02-15 18:01:00,67.0,51.0,-100.00,NNE,14,13.0,26.0,57,0.00,,,0.00,302.000000,,2013-02-16 04:01:00,
2013-02-15 18:11:00,67.0,51.0,-100.00,NNE,14,13.0,26.0,57,0.00,,,0.00,302.000000,,2013-02-16 04:11:00,
2013-02-15 18:21:00,67.0,51.0,-100.00,NNE,14,13.0,26.0,57,0.00,,,0.00,302.000000,,2013-02-16 04:21:00,
2013-02-15 18:31:00,67.0,51.0,-100.00,NNE,14,13.0,26.0,57,0.00,,,0.00,302.000000,,2013-02-16 04:31:00,
2013-02-15 19:01:00,63.0,51.0,-100.00,NW,314,3.0,20.0,66,0.00,,,0.00,33.000000,,2013-02-16 05:01:00,
2013-02-15 19:11:00,63.0,51.0,-100.00,NW,314,3.0,20.0,66,0.00,,,0.00,33.000000,,2013-02-16 05:11:00,
2013-02-15 19:21:00,63.0,51.0,-100.00,NW,314,3.0,20.0,66,0.00,,,0.00,33.000000,,2013-02-16 05:21:00,
2013-02-15 19:31:00,63.0,51.0,-100.00,NW,314,3.0,20.0,66,0.00,,,0.00,33.000000,,2013-02-16 05:31:00,
2013-02-15 20:01:00,60.0,57.0,-100.00,WSW,253,0.0,6.0,90,0.00,,,0.00,0.000000,,2013-02-16 06:01:00,
2013-02-15 20:11:00,60.0,57.0,-100.00,WSW,253,0.0,6.0,90,0.00,,,0.00,0.000000,,2013-02-16 06:11:00,
2013-02-15 20:21:00,60.0,57.0,-100.00,WSW,253,0.0,6.0,90,0.00,,,0.00,0.000000,,2013-02-16 06:21:00,
2013-02-15 20:32:00,60.0,57.0,-100.00,WSW,253,0.0,6.0,90,0.00,,,0.00,0.000000,,2013-02-16 06:32:00,
2013-02-15 21:02:00,62.0,56.0,-100.00,East,81,0.0,4.0,80,0.00,,,0.00,0.000000,,2013-02-16 07:02:00,
2013-02-15 21:11:00,62.0,56.0,-100.00,East,81,0.0,4.0,80,0.00,,,0.00,0.000000,,2013-02-16 07:11:00,
2013-02-15 21:21:00,62.0,56.0,-100.00,East,81,0.0,4.0,80,0.00,,,0.00,0.000000,,2013-02-16 07:21:00,
2013-02-15 21:31:00,62.0,56.0,-100.00,East,81,0.0,4.0,80,0.00,,,0.00,0.000000,,2013-02-16 07:31:00,
2013-02-15 22:01:00,59.0,54.0,-100.00,SE,129,2.0,3.0,84,0.00,,,0.00,0.000000,,2013-02-16 08:01:00,
2013-02-15 22:11:00,59.0,54.0,-100.00,SE,129,2.0,3.0,84,0.00,,,0.00,0.000000,,2013-02-16 08:11:00,
2013-02-15 22:21:00,59.0,54.0,-100.00,SE,129,2.0,3.0,84,0.00,,,0.00,0.000000,,2013-02-16 08:21:00,
2013-02-15 22:31:00,59.0,54.0,-100.00,SE,129,2.0,3.0,84,0.00,,,0.00,0.000000,,2013-02-16 08:31:00,
2013-02-15 23:01:00,59.0,56.0,-100.00,SE,139,3.0,5.0,89,0.00,,,0.00,0.000000,,2013-02-16 09:01:00,
2013-02-15 23:11:00,59.0,56.0,-100.00,SE,139,3.0,5.0,89,0.00,,,0.00,0.000000,,2013-02-16 09:11:00,
2013-02-15 23:21:00,59.0,56.0,-100.00,SE,139,3.0,5.0,89,0.00,,,0.00,0.000000,,2013-02-16 09:21:00,
2013-02-15 23:31:00,59.0,56.0,-100.00,SE,139,3.0,5.0,89,0.00,,,0.00,0.000000,,2013-02-16 09:31:00,